Location: Heiligenberg
(48.5381°N, 7.3897°E)
Time: 02:47:04
(UTC+00:00)

SAR-Lupe-2 - Pass Details

Date: 26 May 2022
Orbit: 481 x 482 km, 98.1° (Epoch: 23 June)

Event Time Altitude Azimuth Distance (km) Brightness Sun altitude
Rises 01:02:18 0° 23° (NNE) 2,556 9.0 -17.2°
Reaches altitude 10° 01:04:33 10° 34° (NE) 1,671 7.5 -17.1°
Maximum altitude 01:07:46 30° 97° (E) 882 5.0 -16.8°
Enters shadow 01:09:35 19° 146° (SE) 1,192 5.2 -16.7°
